Location: Unspecified
(54.1780°N, 0.0000°E)
Time: 05:11:05
(UTC+00:00)

S-56A Canister/Altair - Pass Details

Date: 23 June 2019
Orbit: 633 x 2499 km, 38.9° (Epoch: 17 August)

Event Time Altitude Azimuth Distance (km) Brightness Sun altitude
Rises 15:03:01 0° 214° (SW) 5,257 12.4 44.5°
Reaches altitude 10° 15:08:15 10° 198° (SSW) 3,873 11.7 43.8°
Maximum altitude 15:13:56 17° 162° (SSE) 2,870 10.7 43.0°
Drops below altitude 10° 15:18:32 10° 124° (SE) 3,013 10.4 42.4°
Sets 15:21:53 0° 104° (ESE) 3,686 10.6 41.9°
